Location: Squirrel Cove
(50.1074°N, 124.9139°W)
Time: 00:43:00
(UTC-08:00)

BlueWalker 3 - Pass Details

Date: 06 December 2022
Orbit: 499 x 517 km, 53.2° (Epoch: 29 January)

Event Time Altitude Azimuth Distance (km) Brightness Sun altitude
Rises 17:50:37 0° 289° (WNW) 2,634 6.5 -14.0°
Reaches altitude 10° 17:52:50 10° 291° (WNW) 1,742 5.4 -14.4°
Maximum altitude 17:56:46 70° 16° (NNE) 548 1.9 -15.0°
Enters shadow 17:58:44 27° 94° (E) 994 2.9 -15.3°
